Alturas, CA

9:09 PM PDT on April 23, 2017 (GMT -0700)
Alturas Municipal

Weather History for KAAT - June, 2014

Change the Weather History Date:

Tuesday, June 10, 2014

  Actual Average Record
Temperature  
Mean Temperature 66 °F 58 °F  
Max Temperature 86 °F 76 °F 97 °F (1955)
Min Temperature 46 °F 40 °F 25 °F (1972)
Degree Days  
Heating Degree Days 0 7  
Month to date heating degree days 17 84  
Since 1 June heating degree days 17 84  
Since 1 July heating degree days 6407 6841  
Cooling Degree Days 1 0  
Month to date cooling degree days 9 0  
Year to date cooling degree days 9 0  
Since 1 June cooling degree days 9 0  
Growing Degree Days 16 (Base 50)    
Moisture  
Dew Point 28 °F    
Average Humidity 37    
Maximum Humidity 66    
Minimum Humidity 8    
Precipitation  
Precipitation 0.00 in 0.04 in 1.09 in (1964)
Month to date precipitation 0.00 0.54  
Year to date precipitation 4.99 8.08  
Sea Level Pressure  
Sea Level Pressure 29.87 in    
Wind  
Wind Speed 6 mph (WNW)    
Max Wind Speed 18 mph    
Max Gust Speed 24 mph    
Visibility 10 miles    
Events      
T = Trace of Precipitation, MM = Missing Value Source: NWS Daily Summary

Daily Weather History Graph

Daily Weather History Graph

Search for Another Location

Airport or City:

Trip Planner

Search our weather history database for the weather conditions in past years. The results will help you decide how hot, cold, wet, or windy it might be!

Date:

Astronomy

Jun. 10, 2014 Rise Set
Actual Time 5:28 AM PDT 8:35 PM PDT
Civil Twilight 4:54 AM PDT 9:09 PM PDT
Nautical Twilight 4:11 AM PDT 9:52 PM PDT
Astronomical Twilight 3:19 AM PDT 10:44 PM PDT
Moon 6:04 PM PDT (6/10) 3:39 AM PDT (6/10)
Length of Visible Light 16h 14m
Length of Day
15h 07m
Waxing Gibbous, 93% of the Moon is Illuminated
Jun 10
Waxing Gibbous
Jun 12
Full
Jun 19
Last Quarter
Jun 27
New
Jul 5
First Quarter

Hourly Weather History & Observations

Time (PDT) Temp. Dew Point Humidity Pressure Visibility Wind Dir Wind Speed Gust Speed Precip Events Conditions
12:55 AM 63.0 °F 30.0 °F 29% 29.87 in 10.0 mi NNE 3.5 mph - N/A   Clear
1:55 AM 55.0 °F 32.0 °F 42% 29.88 in 10.0 mi SW 4.6 mph - N/A   Clear
2:55 AM 55.9 °F 37.0 °F 49% 29.88 in 10.0 mi Calm Calm - N/A   Clear
3:55 AM 55.9 °F 35.1 °F 45% 29.89 in 10.0 mi WNW 4.6 mph - N/A   Clear
4:55 AM 48.9 °F 37.9 °F 66% 29.91 in 10.0 mi WSW 3.5 mph - N/A   Clear
5:55 AM 48.9 °F 37.9 °F 66% 29.92 in 10.0 mi Calm Calm - N/A   Clear
6:55 AM 54.0 °F 37.9 °F 55% 29.92 in 10.0 mi South 4.6 mph - N/A   Clear
8:55 AM 64.0 °F 32.0 °F 30% 29.92 in 10.0 mi Calm Calm - N/A   Clear
10:55 AM 73.0 °F 28.9 °F 20% 29.90 in 10.0 mi North - - N/A   Clear
12:55 PM 78.1 °F 26.1 °F 15% 29.87 in 10.0 mi West 9.2 mph - N/A   Clear
2:55 PM 84.0 °F 18.0 °F 9% 29.84 in 10.0 mi NW 8.1 mph 18.4 mph N/A   Clear
3:55 PM 84.9 °F 16.0 °F 8% 29.82 in 10.0 mi WNW 10.4 mph 21.9 mph N/A   Clear
4:55 PM 84.0 °F 18.0 °F 9% 29.83 in 10.0 mi NW 11.5 mph 23.0 mph N/A   Clear
5:55 PM 82.0 °F 17.1 °F 9% 29.83 in 10.0 mi NW 13.8 mph 21.9 mph N/A   Clear
6:55 PM 81.0 °F 19.9 °F 10% 29.82 in 10.0 mi WNW 12.7 mph - N/A   Clear
8:55 PM 73.0 °F 25.0 °F 17% 29.83 in 10.0 mi NW 12.7 mph - N/A   Clear
9:55 PM 70.0 °F 33.1 °F 26% 29.85 in 10.0 mi NNW 10.4 mph - N/A   Clear
10:55 PM 63.0 °F 26.1 °F 25% 29.86 in 10.0 mi SSW 3.5 mph - N/A   Clear
11:55 PM 64.0 °F 24.1 °F 22% 29.88 in 10.0 mi NNE 3.5 mph - N/A   Clear